www.pogodaiklimat.ru

Погода и климат >> Архив погоды >> Великобритания >> Aberdaron


ПОГОДА в Aberdaron

  • Прогноз погоды в Aberdaron
  • Монитор погоды в Aberdaron
  • Климат города

АРХИВ ПОГОДЫ в Aberdaron

Время (UTC), дата Ветер
(напр.,м/с)
 
Видим.   Явления Облачность Т
(С)
Тd
(С)
f
(%)
Тe
(С)
Тes
(С)
Комфортность P
(гПа)
Po
(гПа)
Тmin
(С)
Tmax
(С)
R
(мм)
R24
(мм)
S
(см)
05 17.05 ЮЗ 6 22 км н/о +9.1 +8.6 97 +5 +5 1019.4 1007.7
04 17.05 ЮЗ 8
{13}
25 км н/о +9.4 +8.8 96 +5 +5 1019.5 1007.8
06 17.05 ЮЗ 5 28 км н/о +9.5 +8.7 95 +6 +6 1019.4 1007.7 +9.0
07 17.05 З 5 26 км н/о +9.8 +9.2 96 +6 +6 1019.3 1007.6
08 17.05 ЮЗ 4 30 км н/о +9.9 +8.8 93 +7 +7 1019.5 1007.9
09 17.05 З 4 30 км н/о +10.0 +9.0 93 +7 +7 1018.8 1007.2
11 17.05 ЮЗ 4 23 км н/о +11.0 +9.7 92 +9 +9 1018.0 1006.5
10 17.05 ЮЗ 4 30 км н/о +10.6 +9.3 92 +8 +8 1018.6 1007.0
12 17.05 ЮЗ 5 22 км н/о +11.1 +10.2 94 +8 +8 1017.9 1006.3
13 17.05 ЮЗ 5 28 км н/о +11.1 +9.8 92 +8 +8 1017.4 1005.9
14 17.05 ЮЗ 5 25 км н/о +11.4 +10.2 92 +9 +9 1017.0 1005.4
15 17.05 Ю 6 29 км н/о +11.6 +10.2 91 +9 +9 1016.0 1004.5
17 17.05 ЮЗ 7 35 км н/о +11.7 +9.7 88 +9 +9 1015.1 1003.7
16 17.05 ЮЗ 5 35 км н/о +11.9 +10.2 89 +9 +9 1015.4 1004.0
18 17.05 ЮЗ 6 30 км н/о +11.3 +9.5 89 +8 +8 1014.9 1003.4 +12.4
19 17.05 ЮЗ 8 29 км н/о +10.5 +9.2 92 +7 +7 1014.6 1003.0
20 17.05 ЮЗ 7 26 км н/о +9.8 +9.2 96 +6 +6 1014.4 1002.8
21 17.05 ЮЗ 8 24 км н/о +10.1 +9.4 95 +6 +6 1014.4 1002.9
23 17.05 ЮЗ 7 19 км н/о +9.7 +9.2 97 +6 +6 1013.4 1001.9
22 17.05 ЮЗ 7 19 км н/о +9.8 +9.3 97 +6 +6 1014.0 1002.4
00 18.05 ЮЗ 8 24 км н/о +10.1 +9.4 95 +6 +6 1014.4 1002.9
01 18.05 ЮЗ 7 19 км н/о +9.7 +9.2 97 +6 +6 1013.4 1001.9
02 18.05 З 3 17 км н/о +8.8 +8.6 99 +6 +6 1013.1 1001.5
03 18.05 ЮЗ 5 12 км н/о +9.4 +9.1 98 +6 +6 1013.4 1001.9
05 18.05 З 3 30 км н/о +9.0 +8.9 99 +6 +6 1013.0 1001.4
04 18.05 З 3 30 км н/о +7.9 +7.6 98 +5 +5 1012.8 1001.2
06 18.05 З 3 35 км н/о +8.3 +8.2 99 +5 +5 1012.9 1001.3
07 18.05 З 4 35 км н/о +10.2 +7.6 84 +8 +8 1013.5 1001.9
08 18.05 ЮЗ 3 40 км н/о +10.2 +7.9 86 +8 +8 1013.7 1002.2
09 18.05 ЮЗ 3 45 км н/о +10.9 +8.0 82 +9 +9 1013.8 1002.3
11 18.05 ЮЗ 5 45 км н/о +11.4 +7.8 79 +9 +9 1013.9 1002.4
10 18.05 ЮЗ 5 45 км н/о +11.6 +8.6 82 +9 +9 1013.8 1002.4
12 18.05 ЮЗ 5 40 км н/о +11.8 +8.8 82 +9 +9 1013.9 1002.4
13 18.05 ЮЗ 5 35 км н/о +12.0 +8.6 80 +10 +10 1013.9 1002.5
14 18.05 ЮЗ 5 35 км н/о +12.2 +8.8 80 +10 +10 1013.7 1002.2
15 18.05 ЮЗ 5 50 км н/о +12.1 +8.2 77 +10 +10 1013.3 1001.9
17 18.05 ЮЗ 6 50 км н/о +11.8 +7.9 77 +9 +9 1013.4 1002.0
16 18.05 ЮЗ 5 40 км н/о +12.6 +9.3 80 +10 +10 1013.5 1002.0
18 18.05 ЮЗ 7 50 км н/о +11.0 +7.9 81 +8 +8 1013.4 1001.9 +12.8
19 18.05 ЮЗ 6 50 км н/о +10.5 +8.1 85 +7 +7 1013.2 1001.7
20 18.05 ЮЗ 5 50 км н/о +9.6 +7.6 87 +6 +6 1013.3 1001.7
21 18.05 ЮЗ 5 50 км н/о +9.0 +7.2 88 +6 +6 1013.7 1002.1
23 18.05 ЮЗ 4 45 км н/о +8.6 +7.4 92 +5 +5 1013.2 1001.6
22 18.05 ЮЗ 3 45 км н/о +8.5 +7.1 91 +6 +6 1013.6 1002.0
00 19.05 ЮЗ 4 45 км н/о +8.6 +7.2 91 +5 +5 1013.0 1001.4
01 19.05 ЮЗ 4 40 км н/о +8.5 +7.4 93 +5 +5 1012.8 1001.3
02 19.05 ЮЗ 5 40 км н/о +8.5 +7.6 94 +5 +5 1012.6 1001.0
03 19.05 ЮЗ 4 45 км н/о +8.6 +7.9 95 +5 +5 1012.5 1000.9
05 19.05 ЮЗ 3 35 км н/о +8.2 +7.6 96 +5 +5 1012.4 1000.8
04 19.05 ЮЗ 4 40 км н/о +8.3 +7.8 97 +5 +5 1012.4 1000.8
06 19.05 ЮЗ 2 45 км н/о +9.1 +8.5 96 +7 +7 1012.4 1000.8 +8.0
07 19.05 З 2 50 км н/о +10.0 +8.9 93 +8 +8 1012.6 1001.1
08 19.05 З 1 3600 м н/о +9.8 +7.8 87 +9 +9 1012.9 1001.4
09 19.05 СЗ 3 50 км н/о +11.4 +9.6 89 +10 +10 1012.9 1001.4
11 19.05 СЗ 3 50 км н/о +12.1 +7.0 71 +11 +11 1013.1 1001.6
10 19.05 СЗ 2 50 км н/о +12.0 +8.6 80 +11 +11 1012.8 1001.4
12 19.05 СЗ 4 50 км н/о +12.6 +8.1 74 +11 +11 1013.0 1001.6
13 19.05 З 4 50 км н/о +12.6 +8.8 78 +11 +11 1013.1 1001.7
14 19.05 З 4 50 км н/о +12.9 +8.9 77 +11 +11 1013.0 1001.6
15 19.05 З 4 50 км н/о +12.3 +8.2 76 +10 +10 1013.1 1001.7
17 19.05 ЮЗ 7 50 км н/о +11.6 +8.6 82 +9 +9 1012.8 1001.4
16 19.05 ЮЗ 4 50 км н/о +12.0 +8.5 79 +10 +10 1012.9 1001.5
18 19.05 ЮЗ 6 50 км н/о +11.2 +7.9 80 +8 +8 1013.0 1001.5 +13.8
19 19.05 ЮЗ 6 50 км н/о +10.9 +8.3 84 +8 +8 1013.3 1001.8
20 19.05 ЮЗ 6 50 км н/о +9.8 +7.7 87 +6 +6 1013.4 1001.9
21 19.05 ЮЗ 6 45 км н/о +9.4 +8.0 91 +6 +6 1013.7 1002.1
23 19.05 ЮЗ 6 40 км н/о +9.3 +8.7 96 +6 +6 1013.6 1002.1
22 19.05 ЮЗ 5 35 км н/о +9.3 +8.5 95 +6 +6 1013.8 1002.2
00 20.05 ЮЗ 6 35 км н/о +9.3 +8.7 96 +6 +6 1013.6 1002.0
01 20.05 Ю 6 40 км н/о +9.4 +8.8 96 +6 +6 1013.3 1001.8
02 20.05 ЮЗ 6 30 км н/о +9.6 +9.0 96 +6 +6 1013.4 1001.9
03 20.05 Ю 5 30 км н/о +9.7 +9.2 97 +6 +6 1013.1 1001.5
05 20.05 ЮЗ 5 16 км н/о +9.7 +9.5 99 +6 +6 1012.9 1001.4
04 20.05 ЮЗ 6 30 км н/о +9.8 +9.4 97 +6 +6 1012.9 1001.3
06 20.05 З 5 19 км н/о +9.1 +9.0 99 +5 +5 1013.1 1001.6 +9.1 1
07 20.05 З 4 50 км н/о +9.5 +9.2 98 +6 +6 1013.4 1001.9
08 20.05 ЮЗ 5 50 км н/о +10.2 +9.4 95 +7 +7 1013.7 1002.2
09 20.05 З 7 45 км н/о +10.5 +9.6 94 +7 +7 1014.2 1002.7
11 20.05 ЮЗ 7 50 км н/о +11.7 +9.9 89 +9 +9 1015.1 1003.6
10 20.05 ЮЗ 6 45 км н/о +10.9 +9.7 92 +8 +8 1014.6 1003.1
12 20.05 ЮЗ 7 50 км н/о +12.3 +9.2 81 +9 +9 1015.3 1003.8
13 20.05 ЮЗ 8 35 км н/о +12.1 +9.8 86 +9 +9 1015.5 1004.1
14 20.05 ЮЗ 11
{13}
35 км н/о +12.1 +9.5 84 +8 +8 1015.8 1004.3
15 20.05 ЮЗ 11
{14}
40 км н/о +12.2 +8.9 80 +8 +8 1016.1 1004.6
17 20.05 ЮЗ 11
{13}
35 км н/о +11.1 +8.6 85 +7 +7 1016.7 1005.1
16 20.05 ЮЗ 11
{14}
40 км н/о +11.5 +8.9 84 +7 +7 1016.3 1004.8
18 20.05 ЮЗ 11
{14}
30 км н/о +11.2 +8.9 86 +7 +7 1017.0 1005.5 +12.9
19 20.05 ЮЗ 11
{15}
35 км н/о +10.8 +9.0 89 +6 +6 1017.4 1005.9
20 20.05 ЮЗ 11
{14}
30 км н/о +10.2 +8.9 92 +5 +5 1017.8 1006.2
21 20.05 ЮЗ 12
{14}
30 км н/о +10.2 +8.9 92 +5 +5 1018.4 1006.9
23 20.05 ЮЗ 12
{14}
30 км н/о +10.2 +8.7 90 +5 +5 1019.3 1007.7
22 20.05 ЮЗ 10
{14}
35 км н/о +10.3 +8.8 90 +6 +6 1019.0 1007.5
00 21.05 ЮЗ 11
{14}
27 км н/о +10.0 +9.0 93 +5 +5 1019.8 1008.2
01 21.05 ЮЗ 9
{13}
22 км н/о +10.3 +9.5 95 +6 +6 1019.9 1008.3
02 21.05 ЮЗ 9 19 км н/о +10.4 +9.8 96 +6 +6 1020.0 1008.4
03 21.05 Ю 9 19 км н/о +10.5 +10.1 97 +6 +6 1019.9 1008.3
05 21.05 Ю 10
{13}
24 км н/о +10.7 +10.3 97 +6 +6 1020.2 1008.6
04 21.05 Ю 10
{13}
21 км н/о +10.6 +10.3 98 +6 +6 1019.9 1008.4
06 21.05 Ю 10 23 км н/о +10.7 +10.3 97 +6 +6 1020.6 1009.0 +10.0
07 21.05 Ю 10 25 км н/о +10.9 +10.3 96 +7 +7 1021.2 1009.6
08 21.05 Ю 9 30 км н/о +11.8 +10.4 91 +8 +8 1021.7 1010.2
09 21.05 Ю 9 40 км н/о +12.4 +10.6 89 +9 +9 1021.6 1010.0
11 21.05 Ю 6 35 км н/о +13.1 +10.9 86 +11 +11 1021.7 1010.2
10 21.05 Ю 6 35 км н/о +12.6 +10.6 88 +10 +10 1021.7 1010.2
12 21.05 Ю 7 40 км н/о +13.6 +10.8 83 +11 +11 1021.6 1010.1
13 21.05 Ю 7 40 км н/о +12.8 +10.1 84 +10 +10 1021.3 1009.8
14 21.05 Ю 5 40 км н/о +14.1 +11.2 83 +12 +12 1021.0 1009.5
15 21.05 Ю 5 40 км н/о +13.9 +10.7 81 +12 +12 1020.4 1008.9
17 21.05 Ю 3 45 км н/о +13.4 +10.1 80 +12 +12 1019.3 1007.8
16 21.05 Ю 5 45 км н/о +13.4 +10.0 80 +12 +12 1019.9 1008.5
18 21.05 Ю 4 45 км н/о +13.1 +9.4 78 +12 +12 1018.7 1007.2 +14.6
19 21.05 Ю 4 50 км н/о +13.0 +9.3 78 +11 +11 1018.5 1007.0
20 21.05 Ю 4 40 км н/о +12.6 +9.7 82 +11 +11 1018.3 1006.8
21 21.05 Ю 6 50 км н/о +12.5 +8.9 79 +10 +10 1018.3 1006.8
23 21.05 Ю 6 45 км н/о +11.7 +8.9 83 +9 +9 1017.9 1006.4
22 21.05 Ю 6 50 км н/о +12.1 +9.0 81 +9 +9 1018.1 1006.6
00 22.05 Ю 5 50 км н/о +11.9 +8.9 82 +9 +9 1017.4 1005.9
01 22.05 ЮВ 6 50 км н/о +12.2 +8.3 77 +10 +10 1016.7 1005.2
02 22.05 ЮВ 5 50 км н/о +11.9 +9.1 83 +10 +10 1016.0 1004.5
03 22.05 ЮВ 5 50 км н/о +12.1 +9.6 85 +10 +10 1015.1 1003.6
05 22.05 ЮВ 5 50 км н/о +12.6 +9.7 82 +10 +10 1014.0 1002.6
04 22.05 ЮВ 5 50 км н/о +12.6 +9.0 79 +11 +11 1014.4 1003.0
06 22.05 ЮВ 6 50 км н/о +13.2 +9.7 79 +11 +11 1013.7 1002.3 +11.5
07 22.05 ЮВ 8
{14}
50 км н/о +13.8 +10.1 78 +11 +11 1013.2 1001.8
08 22.05 ЮВ 11
{15}
50 км н/о +14.3 +10.5 78 +11 +11 1013.1 1001.7
09 22.05 Ю 7
{14}
45 км н/о +14.0 +10.9 82 +12 +12 1013.4 1002.0
11 22.05 Ю 7 40 км н/о +14.1 +11.4 84 +12 +12 1013.4 1002.1
10 22.05 Ю 6 35 км н/о +13.8 +11.2 84 +12 +12 1013.7 1002.3
12 22.05 ЮЗ 8 28 км н/о +14.0 +11.8 87 +11 +11 1013.5 1002.1
13 22.05 ЮЗ 9 17 км н/о +12.7 +11.9 95 +9 +9 1013.9 1002.5
14 22.05 Ю 8 19 км н/о +13.2 +12.6 96 +10 +10 1014.1 1002.6
15 22.05 Ю 7 25 км н/о +14.2 +12.6 90 +12 +12 1014.2 1002.8
17 22.05 ЮЗ 12
{16}
24 км н/о +12.7 +10.7 88 +9 +9 1014.4 1003.0
16 22.05 ЮЗ 8 16 км н/о +12.8 +11.9 94 +10 +10 1014.4 1002.9
18 22.05 ЮЗ 10
{17}
17 км н/о +12.0 +11.0 94 +8 +8 1014.3 1002.8 +15.1
19 22.05 ЮЗ 13
{16}
18 км н/о +11.6 +10.9 95 +7 +7 1014.6 1003.1
20 22.05 ЮЗ 12
{17}
19 км н/о +11.5 +10.8 95 +7 +7 1014.9 1003.5
21 22.05 ЮЗ 10
{17}
18 км н/о +11.5 +10.7 95 +7 +7 1015.7 1004.2
23 22.05 ЮЗ 7
{13}
13 км н/о +11.2 +10.7 97 +8 +8 1016.5 1005.0
22 22.05 ЮЗ 9
{14}
16 км н/о +11.4 +10.6 95 +7 +7 1016.2 1004.7
00 23.05 З 7 13 км н/о +11.2 +10.9 98 +8 +8 1016.6 1005.1
01 23.05 ЮЗ 7 7000 м н/о +11.1 +11.1 100 +8 +8 1017.3 1005.8
02 23.05 ЮЗ 7 6000 м н/о +11.1 +11.1 100 +7 +7 1017.8 1006.2
03 23.05 ЮЗ 8 11 км н/о +11.4 +11.4 100 +8 +8 1017.7 1006.1
05 23.05 ЮЗ 4 100 м н/о +11.2 +11.2 100 +9 +9 1018.4 1006.9
04 23.05 ЮЗ 7 100 м н/о +11.5 +11.5 100 +8 +8 1018.0 1006.5
06 23.05 ЮЗ 4 100 м н/о +11.3 +11.3 100 +9 +9 1019.1 1007.6 +11.1
07 23.05 ЮЗ 4 100 м н/о +11.9 +11.9 100 +10 +10 1019.5 1008.0
08 23.05 ЮЗ 3 100 м н/о +11.8 +11.8 100 +10 +10 1020.4 1008.9
09 23.05 З 4 300 м н/о +11.9 +11.9 100 +10 +10 1021.1 1009.6
11 23.05 З 3 900 м н/о +13.7 +13.4 98 +13 +13 1022.0 1010.5
10 23.05 З 3 35 км н/о +14.1 +14.1 100 +13 +13 1021.7 1010.2
12 23.05 ЮЗ 3 30 км н/о +14.4 +13.5 94 +14 +14 1022.4 1010.9
13 23.05 ЮЗ 2 45 км н/о +15.4 +12.9 85 +15 +15 1022.5 1011.1
14 23.05 Ю 4 200 м н/о +11.9 +10.9 94 +10 +10 1023.1 1011.6
15 23.05 Ю 4 16 км н/о +13.2 +12.2 94 +12 +12 1023.1 1011.6
17 23.05 Ю 4 400 м н/о +12.4 +11.8 96 +10 +10 1023.9 1012.3
16 23.05 Ю 4 19 км н/о +13.2 +12.4 95 +12 +12 1023.5 1011.9
18 23.05 Ю 4 1600 м н/о +11.8 +11.7 99 +10 +10 1024.0 1012.5 +15.9
19 23.05 Ю 3 2100 м н/о +12.0 +12.0 100 +10 +10 1024.5 1012.9
20 23.05 Ю 3 300 м н/о +11.8 +11.8 100 +10 +10 1025.1 1013.5
21 23.05 Ю 3 5000 м н/о +11.8 +11.8 100 +10 +10 1025.6 1014.0
23 23.05 ЮВ 3 2000 м н/о +11.9 +11.9 100 +10 +10 1026.1 1014.5
22 23.05 Ю 3 11 км н/о +12.0 +12.0 100 +10 +10 1025.7 1014.1
00 24.05 ЮВ 4 4800 м н/о +11.6 +11.6 100 +9 +9 1026.4 1014.8
01 24.05 ЮВ 3 1300 м н/о +11.8 +11.8 100 +10 +10 1026.4 1014.8
02 24.05 Ю 4 100 м н/о +11.4 +11.4 100 +9 +9 1026.2 1014.6
03 24.05 ЮВ 3 <100 м н/о +10.9 +10.9 100 +9 +9 1026.3 1014.7

 

Местоположение метеостанции Aberdaron (Великобритания): широта 52.78 долгота -4.73 высота над уровнем моря 94 м.

В архиве по умолчанию представлена погода в Aberdaron за последнюю неделю. Архивные данные за месяц целиком и за предыдущие месяцы, начиная с января 2011 года, Вы можете получить, выбрав интересующий диапазон дат из раскрывающегося списка и нажав кнопку "Ввод!".

Внимание! Время в таблицах - всемирное. Для получения местного времени необходимо прибавить поправку, которая в Aberdaron равна 0 ч.

Смотрите также архив погоды в соседних городах и на ближайших метеорологических станциях:

Погода в Valley (Великобритания) (54 км)
Погода в Mona (Великобритания) (58 км)
Погода в Capel Curig (Великобритания) (64 км)
Погода в Trawsgoed (Великобритания) (71 км)
Погода в Aberporth (Великобритания) (73 км)
Погода в Bala (Великобритания) (79 км)
Погода в Lake Vyrnwy (Великобритания) (85 км)
Погода в Rhyl (Великобритания) (98 км)
Погода в Sennybridge (Великобритания) (109 км)
Погода в Pembrey Sands (Великобритания) (120 км)

Пояснения к столбцам:

Ветер - указаны скорость ветра в м/с - средняя за 10 мин, порывы в срок и между сроками (в фигурных скобках) и направление, откуда дует ветер: С - северный, СВ - северо-восточный, В - восточный, ЮВ - юго-восточный, Ю - южный, ЮЗ - юго-западный, З - западный, СЗ - северо-западный.
Видимость - горизонтальная дальность видимости в метрах или километрах. При видимости от 1 до 10 км при отсутствии осадков обычно наблюдается дымка, при ухудшении видимости до 1 км и менее - туман. В сухую погоду видимость может ухудшаться дымом, пылью или мглою.
Явления - указаны атмосферные явления, наблюдавшиеся в срок или в последний час перед сроком; фигурными скобками обозначены явления, наблюдавшиеся между сроками (за 1-3 часа до срока); квадратными скобками обозначены град или гололедные отложения с указанием их диаметра в мм.
Облачность - указаны через наклонную черту общая и нижняя облачность в баллах и высота нижней границы облаков в метрах; квадратными скобками обозначены формы облаков: Ci - перистые, Cs - перисто-слоистые, Cc - перисто-кучевые, Ac - высококучевые, As - высокослоистые, Sc - слоисто-кучевые, Ns - слоисто-дождевые, Cu - кучевые, Cb - кучево-дождевые. Подробнее классификацию облаков см. в Атласе облаков (PDF).
T - Температура воздуха - температура, измеренная на высоте 2 м над землей.
Td - Температура точки росы - температура, при понижении до которой содержащийся в воздухе водяной пар достигнет насыщения.
f - Относительная влажность воздуха - влажноcть воздуха, измеренная на высоте 2 м над землей.
Te - Эффективная температура - температура, которую ощущает одетый по сезону человек в тени. Характеристика душности погоды. При расчете учитывается влияние влажности воздуха и скорости ветра на теплоощущения человека.
Tes - Эффективная температура на солнце - температура, которую ощущает человек, с поправкой на солнечный нагрев. Характеристика знойности погоды. Зависит от высоты солнца над горизонтом, облачности и скорости ветра. Ночью, в пасмурную погоду, а также при ветре 12 м/с и более поправка равна нулю.
P - Атмосферное давление - приведенное к уровню моря атмосферное давление.
Po - Атмосферное давление - измеренное на уровне метеостанции атмосферное давление.
Tmin - Минимальная температура - минимум температуры воздуха на высоте 2 м над землей.
Tmax - Максимальная температура - максимум температуры воздуха на высоте 2 м над землей.
R - Количество осадков - Количество выпавших осадков за период времени, мм. При наведении курсора мыши на число - период времени, за который выпало указанное количество осадков.
R24 - Количество осадков - Количество выпавших осадков за 24 часа, мм.
S - Снежный покров - Высота снежного покрова, см. При наведении курсора мыши на число - состояние снежного покрова и степень покрытия местности в баллах.